This is the latest recevied weather packets stored in our database for station/object WX4LTG. If no packets are shown the sender has not sent any weather packets the latest 10 day(s).
| Time | Temp. | Humidity | Pressure | Rain* | Wind** | Luminosity | Snow |
|---|---|---|---|---|---|---|---|
| 1777565235 | 25° C | 19% | 1010.4 hPa | 0 mm | - | 438 W/m² | - |
| 1777564931 | 25.56° C | 20% | 1010.6 hPa | 0 mm | - | 422 W/m² | - |
| 1777564626 | 25.56° C | 20% | 1010.5 hPa | 0 mm | - | 409 W/m² | - |
| 1777564321 | 25.56° C | 19% | 1010.5 hPa | 0 mm | - | 396 W/m² | - |
| 1777564018 | 25° C | 20% | 1010.7 hPa | 0 mm | - | 381 W/m² | - |
| 1777563714 | 25° C | 19% | 1010.6 hPa | 0 mm | - | 364 W/m² | - |
| 1777563410 | 24.44° C | 20% | 1010.7 hPa | 0 mm | - | 350 W/m² | - |
| 1777563105 | 24.44° C | 20% | 1011 hPa | 0 mm | - | 334 W/m² | - |
| 1777562801 | 24.44° C | 20% | 1010.8 hPa | 0 mm | - | 320 W/m² | - |
| 1777562499 | 23.89° C | 20% | 1010.6 hPa | 0 mm | - | 307 W/m² | - |
| 1777562196 | 23.89° C | 21% | 1011 hPa | 0 mm | - | 293 W/m² | - |
| 1777561894 | 23.33° C | 21% | 1010.6 hPa | 0 mm | - | 278 W/m² | - |
| 1777561591 | 23.33° C | 21% | 1010.7 hPa | 0 mm | - | 264 W/m² | - |
| 1777561287 | 22.78° C | 21% | 1010.7 hPa | 0 mm | - | 249 W/m² | - |
| 1777560986 | 22.78° C | 23% | 1010.7 hPa | 0 mm | - | 234 W/m² | - |
| 1777560682 | 21.67° C | 24% | 1010.8 hPa | 0 mm | - | 221 W/m² | - |
| 1777560380 | 21.67° C | 24% | 1011 hPa | 0 mm | - | 208 W/m² | - |
| 1777560078 | 21.67° C | 25% | 1011 hPa | 0 mm | - | 194 W/m² | - |
| 1777559773 | 21.67° C | 25% | 1010.8 hPa | 0 mm | - | 180 W/m² | - |
| 1777559471 | 21.11° C | 27% | 1011 hPa | 0 mm | - | 167 W/m² | - |
| 1777559168 | 21.67° C | 27% | 1010.6 hPa | 0 mm | - | 154 W/m² | - |
| 1777558867 | 21.11° C | 26% | 1010.7 hPa | 0 mm | - | 142 W/m² | - |
| 1777558563 | 20.56° C | 29% | 1010.7 hPa | 0 mm | - | 130 W/m² | - |
| 1777558259 | 20.56° C | 29% | 1010.7 hPa | 0 mm | - | 116 W/m² | - |
| 1777557955 | 20° C | 29% | 1010.4 hPa | 0 mm | - | 105 W/m² | - |
* Rain latest hour (hover to see other rain measurements)
** Current wind speed in m/s (hover to see current wind gust speed)